| time (UTC) | temp F | wind direction | speed knots | gust knots | rain 1hr in | rain 24hr in | rain mn in | humidity % | barometer mb |
| 20260507213853 | 52 | 71 | 1.7 | 3.5 | 0.00 | 0.02 | 0.02 | 79 | 1014.8 |
| 20260507212850 | 52 | 56 | 1.7 | 3.5 | 0.00 | 0.02 | 0.02 | 79 | 1014.8 |
| 20260507212352 | 52 | 66 | 1.7 | 6.1 | 0.00 | 0.02 | 0.02 | 79 | 1014.8 |
| 20260507211848 | 52 | 63 | 3.5 | 6.1 | 0.00 | 0.02 | 0.02 | 79 | 1014.8 |
| 20260507211343 | 52 | 49 | 2.6 | 4.3 | 0.00 | 0.02 | 0.02 | 79 | 1014.8 |
| 20260507210843 | 51 | 58 | 2.6 | 4.3 | 0.00 | 0.02 | 0.02 | 80 | 1014.8 |
| 20260507210341 | 52 | 69 | 1.7 | 3.5 | 0.00 | 0.02 | 0.02 | 79 | 1014.8 |
| 20260507205839 | 52 | 80 | 1.7 | 3.5 | 0.00 | 0.02 | 0.02 | 79 | 1014.9 |
| 20260507204337 | 52 | 58 | 2.6 | 5.2 | 0.00 | 0.02 | 0.02 | 78 | 1014.8 |
| 20260507203833 | 52 | 49 | 3.5 | 4.3 | 0.00 | 0.02 | 0.02 | 78 | 1014.7 |
| 20260507202833 | 52 | 69 | 2.6 | 6.1 | 0.00 | 0.02 | 0.02 | 78 | 1014.6 |
| 20260507201833 | 53 | 72 | 1.7 | 4.3 | 0.00 | 0.02 | 0.02 | 78 | 1014.6 |
| 20260507201331 | 53 | 53 | 2.6 | 4.3 | 0.00 | 0.02 | 0.02 | 78 | 1014.6 |
| 20260507200832 | 53 | 61 | 1.7 | 3.5 | 0.00 | 0.02 | 0.02 | 78 | 1014.6 |
| 20260507195828 | 53 | 64 | 1.7 | 3.5 | 0.00 | 0.02 | 0.02 | 78 | 1014.6 |
| 20260507195325 | 53 | 63 | 1.7 | 3.5 | 0.00 | 0.02 | 0.02 | 78 | 1014.5 |
| 20260507194824 | 53 | 62 | 1.7 | 3.5 | 0.00 | 0.02 | 0.02 | 78 | 1014.5 |
| 20260507194327 | 53 | 61 | 2.6 | 3.5 | 0.00 | 0.02 | 0.02 | 78 | 1014.5 |
| 20260507193822 | 54 | 38 | 1.7 | 2.6 | 0.00 | 0.02 | 0.02 | 77 | 1014.5 |
| 20260507193315 | 54 | 38 | 0.9 | 2.6 | 0.00 | 0.02 | 0.02 | 76 | 1014.5 |
| 20260507192808 | 54 | 38 | 1.7 | 2.6 | 0.00 | 0.02 | 0.02 | 75 | 1014.5 |
| 20260507192307 | 55 | 38 | 1.7 | 2.6 | 0.00 | 0.02 | 0.02 | 75 | 1014.3 |
| 20260507191808 | 55 | 216 | 0.9 | 1.7 | 0.00 | 0.02 | 0.02 | 75 | 1014.3 |
| 20260507190804 | 55 | 216 | 0.9 | 2.6 | 0.00 | 0.02 | 0.02 | 76 | 1014.3 |
| 20260507190303 | 55 | 216 | 1.7 | 2.6 | 0.00 | 0.02 | 0.02 | 76 | 1014.2 |
| 20260507185802 | 55 | 216 | 0.9 | 1.7 | 0.00 | 0.02 | 0.02 | 76 | 1014.2 |
| 20260507185305 | 56 | 216 | 0.9 | 1.7 | 0.00 | 0.02 | 0.02 | 75 | 1014.2 |
| 20260507184804 | 56 | 216 | 0.9 | 1.7 | 0.00 | 0.02 | 0.02 | 75 | 1014.3 |
| 20260507184301 | 56 | 216 | 0.9 | 1.7 | 0.00 | 0.02 | 0.02 | 75 | 1014.2 |
| 20260507183802 | 56 | 216 | 0.9 | 1.7 | 0.00 | 0.02 | 0.02 | 75 | 1014.1 |
| 20260507183300 | 56 | 216 | 1.7 | 1.7 | 0.00 | 0.02 | 0.02 | 74 | 1014.1 |
| 20260507182236 | 57 | 216 | 0.0 | 0.9 | 0.00 | 0.02 | 0.02 | 71 | 1014.1 |
| 20260507181734 | 58 | 216 | 0.0 | 2.6 | 0.00 | 0.02 | 0.02 | 68 | 1014.0 |
| 20260507181237 | 58 | 216 | 0.9 | 2.6 | 0.00 | 0.02 | 0.02 | 65 | 1013.9 |
| 20260507180730 | 58 | 216 | 0.9 | 2.6 | 0.00 | 0.02 | 0.02 | 63 | 1013.9 |
| 20260507180232 | 59 | 216 | 0.9 | 3.5 | 0.00 | 0.02 | 0.02 | 63 | 1013.9 |
| 20260507175730 | 59 | 220 | 0.9 | 3.5 | 0.00 | 0.02 | 0.02 | 63 | 1013.8 |
| 20260507175225 | 59 | 235 | 1.7 | 3.5 | 0.00 | 0.02 | 0.02 | 62 | 1013.7 |
| 20260507174726 | 59 | 207 | 2.6 | 3.5 | 0.00 | 0.02 | 0.02 | 62 | 1013.7 |
| 20260507174227 | 59 | 211 | 2.6 | 4.3 | 0.00 | 0.02 | 0.02 | 62 | 1013.7 |
| 20260507173722 | 60 | 206 | 2.6 | 4.3 | 0.00 | 0.02 | 0.02 | 61 | 1013.6 |
| 20260507172205 | 61 | 22 | 0.0 | 4.3 | 0.00 | 0.02 | 0.02 | 58 | 1013.5 |
| 20260507171707 | 61 | 213 | 1.7 | 4.3 | 0.00 | 0.02 | 0.02 | 60 | 1013.4 |
| 20260507170703 | 61 | 240 | 2.6 | 5.2 | 0.00 | 0.02 | 0.02 | 59 | 1013.5 |
| 20260507170207 | 62 | 221 | 2.6 | 5.2 | 0.00 | 0.02 | 0.02 | 59 | 1013.5 |
| 20260507165702 | 62 | 199 | 1.7 | 6.1 | 0.00 | 0.02 | 0.02 | 58 | 1013.6 |
| 20260507165205 | 62 | 184 | 4.3 | 6.1 | 0.00 | 0.02 | 0.02 | 57 | 1013.6 |
| 20260507164702 | 62 | 211 | 1.7 | 6.1 | 0.00 | 0.02 | 0.02 | 58 | 1013.5 |
| 20260507164200 | 62 | 222 | 4.3 | 7.8 | 0.00 | 0.02 | 0.02 | 56 | 1013.6 |
| 20260507163700 | 62 | 202 | 4.3 | 7.8 | 0.00 | 0.02 | 0.02 | 57 | 1013.6 |
| 20260507163158 | 62 | 188 | 2.6 | 5.2 | 0.00 | 0.02 | 0.02 | 56 | 1013.6 |
| 20260507162653 | 62 | 208 | 1.7 | 5.2 | 0.00 | 0.02 | 0.02 | 57 | 1013.6 |
| 20260507162156 | 62 | 205 | 3.5 | 5.2 | 0.00 | 0.02 | 0.02 | 57 | 1013.5 |
| 20260507161656 | 62 | 186 | 1.7 | 4.3 | 0.00 | 0.02 | 0.02 | 59 | 1013.5 |
| 20260507161155 | 62 | 222 | 1.7 | 4.3 | 0.00 | 0.02 | 0.02 | 57 | 1013.5 |
| 20260507160650 | 61 | 207 | 1.7 | 3.5 | 0.00 | 0.02 | 0.02 | 60 | 1013.6 |
| 20260507155642 | 61 | 233 | 1.7 | 5.2 | 0.00 | 0.02 | 0.02 | 59 | 1013.7 |
| 20260507155139 | 61 | 221 | 3.5 | 5.2 | 0.00 | 0.02 | 0.02 | 59 | 1013.8 |
| 20260507154640 | 61 | 209 | 0.9 | 5.2 | 0.00 | 0.02 | 0.02 | 59 | 1013.6 |
| 20260507154134 | 62 | 152 | 2.6 | 6.1 | 0.00 | 0.02 | 0.02 | 58 | 1013.7 |
| 20260507153634 | 62 | 198 | 3.5 | 6.1 | 0.00 | 0.02 | 0.02 | 61 | 1013.6 |
| 20260507153131 | 61 | 232 | 1.7 | 5.2 | 0.00 | 0.02 | 0.02 | 60 | 1013.6 |
| 20260507152629 | 61 | 215 | 1.7 | 5.2 | 0.00 | 0.02 | 0.02 | 62 | 1013.6 |
| 20260507152128 | 60 | 195 | 1.7 | 3.5 | 0.00 | 0.02 | 0.02 | 64 | 1013.6 |
| 20260507151626 | 60 | 106 | 1.7 | 2.6 | 0.00 | 0.02 | 0.02 | 65 | 1013.6 |
| 20260507150625 | 60 | 155 | 0.9 | 5.2 | 0.00 | 0.02 | 0.02 | 62 | 1013.7 |
| 20260507150120 | 61 | 190 | 1.7 | 6.1 | 0.00 | 0.02 | 0.02 | 60 | 1013.7 |
| 20260507145617 | 62 | 210 | 3.5 | 6.1 | 0.00 | 0.02 | 0.02 | 61 | 1013.7 |
| 20260507145113 | 61 | 196 | 3.5 | 5.2 | 0.00 | 0.02 | 0.02 | 61 | 1013.7 |
| 20260507144109 | 62 | 194 | 2.6 | 5.2 | 0.00 | 0.02 | 0.02 | 61 | 1013.7 |
| 20260507143607 | 63 | 200 | 3.5 | 5.2 | 0.00 | 0.02 | 0.02 | 60 | 1013.7 |
| 20260507143107 | 62 | 221 | 2.6 | 6.1 | 0.00 | 0.02 | 0.02 | 62 | 1013.7 |
| 20260507142606 | 62 | 226 | 3.5 | 6.1 | 0.00 | 0.02 | 0.02 | 61 | 1013.7 |
| 20260507142105 | 62 | 163 | 1.7 | 3.5 | 0.00 | 0.02 | 0.02 | 64 | 1013.7 |
| 20260507141603 | 61 | 171 | 0.9 | 4.3 | 0.00 | 0.02 | 0.02 | 61 | 1013.7 |
| 20260507141103 | 61 | 220 | 1.7 | 4.3 | 0.00 | 0.02 | 0.02 | 62 | 1013.6 |
| 20260507140603 | 61 | 0 | 1.7 | 5.2 | 0.00 | 0.02 | 0.02 | 61 | 1013.6 |
| 20260507140124 | 60 | 65 | 1.7 | 7.8 | 0.00 | 0.02 | 0.02 | 63 | 1013.7 |
| 20260507135600 | 61 | 24 | 5.2 | 8.7 | 0.00 | 0.02 | 0.02 | 63 | 1013.7 |
| 20260507135058 | 60 | 264 | 4.3 | 8.7 | 0.00 | 0.03 | 0.02 | 63 | 1013.9 |
| 20260507134557 | 60 | 242 | 1.7 | 5.2 | 0.00 | 0.03 | 0.02 | 63 | 1013.9 |
| 20260507133550 | 60 | 174 | 2.6 | 7.0 | 0.00 | 0.04 | 0.02 | 62 | 1014.0 |
| 20260507133049 | 60 | 20 | 3.5 | 7.0 | 0.00 | 0.05 | 0.02 | 64 | 1014.1 |
| 20260507132549 | 60 | 196 | 3.5 | 7.0 | 0.00 | 0.07 | 0.02 | 63 | 1014.0 |
| 20260507132045 | 60 | 204 | 2.6 | 7.0 | 0.00 | 0.09 | 0.02 | 62 | 1014.0 |
| 20260507131546 | 61 | 198 | 4.3 | 7.0 | 0.00 | 0.09 | 0.02 | 63 | 1014.1 |
| 20260507131040 | 61 | 265 | 3.5 | 9.6 | 0.00 | 0.09 | 0.02 | 62 | 1013.9 |
| 20260507130540 | 62 | 261 | 6.1 | 9.6 | 0.00 | 0.10 | 0.02 | 60 | 1014.0 |
| 20260507130113 | 62 | 253 | 3.5 | 8.7 | 0.00 | 0.11 | 0.02 | 63 | 1014.0 |
| 20260507125533 | 62 | 210 | 2.6 | 8.7 | 0.00 | 0.11 | 0.02 | 63 | 1014.0 |
| 20260507125031 | 61 | 13 | 2.6 | 8.7 | 0.00 | 0.12 | 0.02 | 66 | 1014.0 |
| 20260507124522 | 59 | 250 | 1.7 | 5.2 | 0.00 | 0.13 | 0.02 | 65 | 1014.0 |
| 20260507124018 | 59 | 43 | 2.6 | 4.3 | 0.00 | 0.17 | 0.02 | 64 | 1014.1 |
| 20260507123516 | 60 | 32 | 0.9 | 7.8 | 0.00 | 0.18 | 0.02 | 62 | 1014.1 |
| 20260507123020 | 59 | 232 | 2.6 | 7.8 | 0.00 | 0.19 | 0.02 | 66 | 1014.2 |
| 20260507122517 | 60 | 5 | 1.7 | 7.0 | 0.00 | 0.20 | 0.02 | 66 | 1014.1 |
| 20260507122014 | 60 | 263 | 2.6 | 8.7 | 0.00 | 0.21 | 0.02 | 66 | 1014.0 |
| 20260507121020 | 61 | 11 | 3.5 | 7.0 | 0.00 | 0.21 | 0.02 | 69 | 1014.0 |
| 20260507120504 | 60 | 9 | 1.7 | 7.0 | 0.00 | 0.21 | 0.02 | 66 | 1014.0 |
| 20260507120000 | 60 | 13 | 3.5 | 7.0 | 0.00 | 0.21 | 0.02 | 67 | 1014.1 |
| 20260507115458 | 59 | 0 | 1.7 | 5.2 | 0.00 | 0.21 | 0.02 | 67 | 1014.0 |
| 20260507114957 | 58 | 38 | 1.7 | 7.0 | 0.00 | 0.21 | 0.02 | 70 | 1014.2 |
| 20260507113943 | 58 | 231 | 4.3 | 8.7 | 0.00 | 0.21 | 0.02 | 70 | 1014.2 |
| 20260507113442 | 59 | 262 | 3.5 | 7.0 | 0.00 | 0.21 | 0.02 | 69 | 1014.2 |
| 20260507112940 | 58 | 17 | 1.7 | 7.0 | 0.00 | 0.21 | 0.02 | 71 | 1014.3 |
| 20260507112438 | 58 | 31 | 3.5 | 7.0 | 0.00 | 0.21 | 0.02 | 71 | 1014.2 |
| 20260507111937 | 58 | 247 | 1.7 | 5.2 | 0.00 | 0.21 | 0.02 | 70 | 1014.3 |
| 20260507111440 | 59 | 261 | 1.7 | 5.2 | 0.00 | 0.21 | 0.02 | 68 | 1014.3 |
| 20260507110936 | 59 | 265 | 1.7 | 7.0 | 0.00 | 0.21 | 0.02 | 70 | 1014.3 |
| 20260507110433 | 58 | 207 | 2.6 | 7.8 | 0.00 | 0.21 | 0.02 | 69 | 1014.3 |
| 20260507105929 | 58 | 264 | 3.5 | 7.8 | 0.00 | 0.21 | 0.02 | 70 | 1014.3 |
| 20260507105428 | 59 | 161 | 5.2 | 7.0 | 0.00 | 0.21 | 0.02 | 66 | 1014.4 |
| 20260507104928 | 58 | 238 | 3.5 | 8.7 | 0.00 | 0.21 | 0.02 | 69 | 1014.4 |
| 20260507104426 | 57 | 210 | 1.7 | 8.7 | 0.00 | 0.21 | 0.02 | 71 | 1014.5 |
| 20260507103923 | 57 | 224 | 4.3 | 7.8 | 0.00 | 0.21 | 0.02 | 70 | 1014.5 |
| 20260507103421 | 58 | 209 | 1.7 | 5.2 | 0.00 | 0.21 | 0.02 | 70 | 1014.5 |
| 20260507102920 | 59 | 232 | 1.7 | 5.2 | 0.00 | 0.21 | 0.02 | 70 | 1014.6 |
| 20260507102421 | 58 | 238 | 2.6 | 6.1 | 0.00 | 0.21 | 0.02 | 73 | 1014.5 |
| 20260507101916 | 58 | 57 | 2.6 | 7.8 | 0.00 | 0.21 | 0.02 | 73 | 1014.6 |
| 20260507101415 | 58 | 244 | 2.6 | 7.8 | 0.00 | 0.21 | 0.02 | 75 | 1014.5 |
| 20260507100914 | 57 | 14 | 1.7 | 5.2 | 0.00 | 0.21 | 0.02 | 74 | 1014.6 |
| 20260507100416 | 57 | 265 | 1.7 | 6.1 | 0.00 | 0.21 | 0.02 | 73 | 1014.6 |
| 20260507095911 | 56 | 248 | 3.5 | 6.1 | 0.00 | 0.21 | 0.02 | 74 | 1014.7 |
| 20260507094908 | 55 | 249 | 2.6 | 6.1 | 0.00 | 0.21 | 0.02 | 74 | 1014.6 |
| 20260507094406 | 55 | 234 | 2.6 | 7.8 | 0.00 | 0.21 | 0.02 | 75 | 1014.6 |
| 20260507093903 | 55 | 238 | 2.6 | 7.8 | 0.00 | 0.21 | 0.02 | 74 | 1014.6 |
| 20260507093404 | 55 | 265 | 1.7 | 7.0 | 0.00 | 0.21 | 0.02 | 73 | 1014.5 |
| 20260507092905 | 56 | 184 | 1.7 | 6.1 | 0.00 | 0.21 | 0.02 | 75 | 1014.5 |
| 20260507091901 | 55 | 255 | 2.6 | 6.1 | 0.00 | 0.21 | 0.02 | 77 | 1014.6 |
| 20260507091359 | 54 | 256 | 3.5 | 6.1 | 0.00 | 0.21 | 0.02 | 76 | 1014.5 |
| 20260507090857 | 55 | 231 | 2.6 | 4.3 | 0.00 | 0.21 | 0.02 | 76 | 1014.5 |
| 20260507090358 | 55 | 211 | 1.7 | 6.1 | 0.00 | 0.21 | 0.02 | 76 | 1014.5 |
| 20260507085855 | 55 | 235 | 1.7 | 7.8 | 0.00 | 0.21 | 0.02 | 75 | 1014.4 |
| 20260507085355 | 56 | 216 | 5.2 | 7.8 | 0.00 | 0.21 | 0.02 | 76 | 1014.5 |
| 20260507084845 | 55 | 206 | 3.5 | 7.8 | 0.00 | 0.21 | 0.02 | 76 | 1014.4 |
| 20260507084345 | 55 | 192 | 3.5 | 7.8 | 0.00 | 0.21 | 0.02 | 77 | 1014.4 |
| 20260507083843 | 54 | 215 | 2.6 | 6.1 | 0.00 | 0.21 | 0.02 | 77 | 1014.3 |
| 20260507083343 | 54 | 221 | 1.7 | 3.5 | 0.00 | 0.21 | 0.02 | 77 | 1014.3 |
| 20260507082844 | 54 | 219 | 0.9 | 5.2 | 0.00 | 0.21 | 0.02 | 79 | 1014.3 |
| 20260507082340 | 54 | 243 | 1.7 | 5.2 | 0.00 | 0.21 | 0.02 | 79 | 1014.4 |
| 20260507081838 | 55 | 0 | 1.7 | 5.2 | 0.00 | 0.21 | 0.02 | 78 | 1014.3 |
| 20260507081336 | 55 | 179 | 2.6 | 5.2 | 0.00 | 0.21 | 0.02 | 76 | 1014.3 |
| 20260507080835 | 55 | 216 | 2.6 | 5.2 | 0.00 | 0.21 | 0.02 | 78 | 1014.2 |
| 20260507080332 | 54 | 253 | 0.9 | 5.2 | 0.00 | 0.21 | 0.02 | 81 | 1014.3 |
| 20260507075832 | 53 | 208 | 2.6 | 5.2 | 0.00 | 0.21 | 0.02 | 80 | 1014.3 |
| 20260507074332 | 52 | 219 | 0.9 | 2.6 | 0.00 | 0.21 | 0.02 | 80 | 1014.2 |
| 20260507073833 | 52 | 219 | 0.9 | 2.6 | 0.00 | 0.21 | 0.02 | 81 | 1014.2 |
| 20260507073330 | 52 | 219 | 0.0 | 3.5 | 0.00 | 0.21 | 0.02 | 83 | 1014.2 |
| 20260507072829 | 52 | 248 | 0.9 | 3.5 | 0.00 | 0.21 | 0.02 | 82 | 1014.3 |
| 20260507072332 | 52 | 235 | 0.9 | 2.6 | 0.00 | 0.21 | 0.02 | 84 | 1014.1 |
| 20260507071827 | 52 | 57 | 0.0 | 1.7 | 0.00 | 0.21 | 0.02 | 83 | 1014.2 |
| 20260507071327 | 52 | 57 | 0.0 | 1.7 | 0.00 | 0.21 | 0.02 | 83 | 1014.1 |
| 20260507070825 | 51 | 57 | 0.0 | 1.7 | 0.00 | 0.21 | 0.02 | 85 | 1014.1 |
| 20260507070327 | 51 | 58 | 0.0 | 1.7 | 0.00 | 0.21 | 0.02 | 84 | 1014.1 |
| 20260507065822 | 51 | 58 | 0.9 | 1.7 | 0.00 | 0.21 | 0.02 | 84 | 1014.1 |
| 20260507065322 | 51 | 58 | 0.0 | 1.7 | 0.00 | 0.21 | 0.02 | 85 | 1014.1 |
| 20260507064308 | 50 | 45 | 0.0 | 1.7 | 0.00 | 0.21 | 0.02 | 85 | 1014.0 |
| 20260507063808 | 50 | 45 | 0.9 | 1.7 | 0.00 | 0.21 | 0.02 | 85 | 1013.9 |
| 20260507063307 | 50 | 45 | 0.9 | 1.7 | 0.00 | 0.21 | 0.02 | 87 | 1013.9 |
| 20260507062803 | 50 | 45 | 0.0 | 1.7 | 0.00 | 0.21 | 0.02 | 87 | 1013.9 |
| 20260507062306 | 50 | 45 | 0.0 | 1.7 | 0.00 | 0.21 | 0.02 | 88 | 1013.9 |
| 20260507061803 | 49 | 45 | 0.9 | 1.7 | 0.00 | 0.21 | 0.02 | 88 | 1013.9 |
| 20260507061303 | 49 | 45 | 0.0 | 1.7 | 0.00 | 0.21 | 0.02 | 89 | 1013.9 |
| 20260507055800 | 49 | 45 | 0.9 | 1.7 | 0.00 | 0.21 | 0.02 | 90 | 1013.8 |
| 20260507055258 | 49 | 45 | 0.9 | 1.7 | 0.01 | 0.21 | 0.02 | 90 | 1013.7 |
| 20260507054756 | 48 | 45 | 0.9 | 1.7 | 0.01 | 0.21 | 0.02 | 90 | 1013.6 |
| 20260507054254 | 48 | 45 | 0.0 | 1.7 | 0.01 | 0.21 | 0.02 | 90 | 1013.5 |
| 20260507053755 | 48 | 45 | 0.9 | 1.7 | 0.01 | 0.21 | 0.02 | 91 | 1013.6 |
| 20260507053248 | 48 | 45 | 0.9 | 2.6 | 0.01 | 0.21 | 0.02 | 91 | 1013.5 |
| 20260507052746 | 48 | 45 | 1.7 | 2.6 | 0.01 | 0.21 | 0.02 | 91 | 1013.4 |
| 20260507052246 | 48 | 45 | 0.0 | 1.7 | 0.01 | 0.21 | 0.02 | 91 | 1013.4 |
| 20260507051744 | 48 | 45 | 0.9 | 2.6 | 0.01 | 0.21 | 0.02 | 91 | 1013.2 |
| 20260507051238 | 48 | 45 | 1.7 | 2.6 | 0.01 | 0.21 | 0.02 | 90 | 1013.2 |
| 20260507050738 | 48 | 255 | 0.9 | 1.7 | 0.01 | 0.21 | 0.02 | 90 | 1013.1 |
| 20260507050235 | 48 | 255 | 0.9 | 1.7 | 0.01 | 0.21 | 0.02 | 91 | 1013.2 |
| 20260507045736 | 48 | 254 | 0.9 | 1.7 | 0.01 | 0.20 | 0.02 | 90 | 1013.0 |
| 20260507045235 | 48 | 254 | 0.0 | 1.7 | 0.00 | 0.20 | 0.01 | 90 | 1013.0 |
| 20260507044733 | 48 | 254 | 0.0 | 2.6 | 0.00 | 0.20 | 0.01 | 90 | 1012.9 |
| 20260507044234 | 48 | 254 | 0.9 | 2.6 | 0.00 | 0.20 | 0.01 | 90 | 1012.8 |
| 20260507043731 | 47 | 243 | 0.0 | 2.6 | 0.00 | 0.20 | 0.01 | 90 | 1012.8 |
| 20260507043233 | 47 | 238 | 0.9 | 2.6 | 0.00 | 0.20 | 0.01 | 90 | 1012.8 |
| 20260507042731 | 47 | 238 | 0.9 | 2.6 | 0.00 | 0.20 | 0.01 | 90 | 1012.8 |
| 20260507042231 | 47 | 34 | 0.0 | 1.7 | 0.00 | 0.20 | 0.01 | 91 | 1012.8 |
| 20260507041232 | 47 | 231 | 0.0 | 2.6 | 0.00 | 0.20 | 0.01 | 91 | 1012.6 |
| 20260507040731 | 47 | 231 | 0.9 | 2.6 | 0.00 | 0.20 | 0.01 | 91 | 1012.6 |
| 20260507040233 | 47 | 242 | 0.9 | 2.6 | 0.00 | 0.20 | 0.01 | 91 | 1012.6 |
| 20260507035732 | 47 | 242 | 1.7 | 2.6 | 0.00 | 0.20 | 0.01 | 91 | 1012.6 |
| 20260507035231 | 47 | 17 | 0.0 | 1.7 | 0.01 | 0.20 | 0.01 | 91 | 1012.5 |
| 20260507034725 | 47 | 17 | 0.9 | 1.7 | 0.01 | 0.20 | 0.01 | 91 | 1012.5 |
| 20260507034212 | 47 | 17 | 0.0 | 0.9 | 0.01 | 0.20 | 0.01 | 91 | 1012.5 |
| 20260507033714 | 47 | 17 | 0.0 | 1.7 | 0.01 | 0.20 | 0.01 | 91 | 1012.5 |
| 20260507033221 | 47 | 17 | 0.0 | 1.7 | 0.01 | 0.20 | 0.01 | 91 | 1012.4 |
| 20260507032710 | 47 | 17 | 0.9 | 1.7 | 0.01 | 0.20 | 0.01 | 91 | 1012.4 |
| 20260507032207 | 47 | 17 | 0.9 | 1.7 | 0.01 | 0.20 | 0.01 | 91 | 1012.5 |
| 20260507031704 | 47 | 17 | 0.0 | 0.0 | 0.01 | 0.20 | 0.01 | 91 | 1012.4 |
| 20260507031208 | 47 | 17 | 0.0 | 0.9 | 0.01 | 0.20 | 0.01 | 91 | 1012.3 |
| 20260507030200 | 47 | 17 | 0.9 | 0.9 | 0.01 | 0.20 | 0.01 | 91 | 1012.5 |
| 20260507025656 | 47 | 17 | 0.0 | 0.0 | 0.01 | 0.20 | 0.01 | 90 | 1012.4 |
| 20260507025158 | 47 | 17 | 0.0 | 0.9 | 0.00 | 0.20 | 0.00 | 90 | 1012.3 |
| 20260507024643 | 47 | 17 | 0.0 | 1.7 | 0.00 | 0.20 | 0.00 | 90 | 1012.4 |
| 20260507024134 | 47 | 17 | 0.9 | 1.7 | 0.00 | 0.20 | 0.00 | 90 | 1012.3 |
| 20260507023132 | 48 | 17 | 0.0 | 1.7 | 0.00 | 0.20 | 0.00 | 90 | 1012.3 |
| 20260507022127 | 48 | 17 | 0.0 | 1.7 | 0.00 | 0.20 | 0.00 | 90 | 1012.2 |
| 20260507021622 | 48 | 17 | 0.0 | 1.7 | 0.00 | 0.20 | 0.00 | 90 | 1012.2 |
| 20260507021123 | 48 | 17 | 0.0 | 1.7 | 0.00 | 0.20 | 0.00 | 90 | 1012.3 |
| 20260507020620 | 48 | 17 | 0.0 | 2.6 | 0.00 | 0.20 | 0.00 | 90 | 1012.1 |
| 20260507020124 | 48 | 17 | 0.9 | 2.6 | 0.00 | 0.20 | 0.00 | 90 | 1012.2 |
| 20260507015617 | 48 | 17 | 0.0 | 0.9 | 0.00 | 0.20 | 0.00 | 90 | 1012.1 |
| 20260507015117 | 48 | 17 | 0.0 | 1.7 | 0.00 | 0.20 | 0.00 | 90 | 1012.0 |
| 20260507014612 | 48 | 17 | 0.0 | 2.6 | 0.00 | 0.20 | 0.00 | 90 | 1012.0 |
| 20260507014108 | 48 | 17 | 0.9 | 2.6 | 0.00 | 0.20 | 0.00 | 90 | 1012.0 |
| 20260507013609 | 47 | 232 | 1.7 | 4.3 | 0.00 | 0.20 | 0.00 | 90 | 1012.0 |
| 20260507013108 | 47 | 232 | 1.7 | 4.3 | 0.00 | 0.20 | 0.00 | 90 | 1012.0 |
| 20260507012103 | 47 | 202 | 1.7 | 3.5 | 0.00 | 0.20 | 0.00 | 91 | 1012.1 |
| 20260507011605 | 47 | 220 | 0.0 | 0.0 | 0.00 | 0.20 | 0.00 | 91 | 1012.0 |
| 20260507010610 | 48 | 220 | 0.0 | 0.9 | 0.00 | 0.20 | 0.00 | 90 | 1011.9 |
| 20260507010108 | 48 | 220 | 0.0 | 3.5 | 0.00 | 0.20 | 0.00 | 91 | 1011.8 |
| 20260507005553 | 48 | 220 | 0.9 | 3.5 | 0.00 | 0.20 | 0.00 | 91 | 1011.9 |
| 20260507005050 | 48 | 223 | 1.7 | 3.5 | 0.00 | 0.20 | 0.00 | 92 | 1011.9 |
| 20260507004551 | 48 | 223 | 0.9 | 4.3 | 0.00 | 0.20 | 0.00 | 92 | 1011.8 |
| 20260507004049 | 47 | 221 | 2.6 | 4.3 | 0.00 | 0.20 | 0.00 | 92 | 1011.9 |
| 20260507003548 | 47 | 212 | 0.9 | 3.5 | 0.00 | 0.20 | 0.00 | 93 | 1011.8 |
| 20260507002547 | 47 | 186 | 1.7 | 2.6 | 0.00 | 0.20 | 0.00 | 93 | 1011.7 |
| 20260507002045 | 47 | 212 | 0.9 | 1.7 | 0.00 | 0.20 | 0.00 | 93 | 1011.7 |
| 20260507001043 | 47 | 66 | 0.0 | 1.7 | 0.00 | 0.20 | 0.00 | 93 | 1011.7 |
| 20260507000539 | 47 | 66 | 0.0 | 1.7 | 0.00 | 0.20 | 0.00 | 93 | 1011.6 |
| 20260506235534 | 47 | 66 | 0.9 | 3.5 | 0.00 | 0.20 | 0.00 | 93 | 1011.5 |
| 20260506235036 | 47 | 61 | 1.7 | 2.6 | 0.00 | 0.20 | 0.00 | 93 | 1011.5 |
| 20260506234524 | 47 | 61 | 0.9 | 2.6 | 0.00 | 0.20 | 0.00 | 93 | 1011.5 |
| 20260506234022 | 46 | 59 | 0.9 | 2.6 | 0.00 | 0.20 | 0.00 | 93 | 1011.4 |
| 20260506233521 | 46 | 61 | 1.7 | 2.6 | 0.00 | 0.20 | 0.00 | 93 | 1011.5 |
| 20260506233020 | 46 | 61 | 0.9 | 2.6 | 0.00 | 0.20 | 0.00 | 93 | 1011.5 |
| 20260506232518 | 46 | 61 | 0.0 | 2.6 | 0.00 | 0.20 | 0.00 | 93 | 1011.5 |
| 20260506232018 | 46 | 61 | 0.9 | 2.6 | 0.00 | 0.20 | 0.00 | 92 | 1011.4 |
| 20260506231518 | 45 | 61 | 0.0 | 2.6 | 0.00 | 0.20 | 0.00 | 92 | 1011.4 |
| 20260506231015 | 45 | 61 | 0.9 | 3.5 | 0.00 | 0.20 | 0.00 | 92 | 1011.5 |
| 20260506230512 | 46 | 61 | 1.7 | 3.5 | 0.00 | 0.20 | 0.00 | 92 | 1011.4 |
| 20260506230044 | 46 | 59 | 0.0 | 1.7 | 0.00 | 0.20 | 0.00 | 92 | 1011.4 |
| 20260506225452 | 46 | 59 | 0.9 | 3.5 | 0.00 | 0.20 | 0.00 | 92 | 1011.2 |
| 20260506224950 | 46 | 59 | 1.7 | 3.5 | 0.00 | 0.20 | 0.00 | 92 | 1011.1 |
| 20260506224449 | 46 | 54 | 0.9 | 2.6 | 0.00 | 0.20 | 0.00 | 92 | 1011.1 |
| 20260506223949 | 46 | 54 | 1.7 | 2.6 | 0.00 | 0.20 | 0.00 | 92 | 1011.2 |
| 20260506223444 | 46 | 54 | 1.7 | 3.5 | 0.00 | 0.20 | 0.00 | 92 | 1011.1 |
| 20260506222943 | 46 | 54 | 2.6 | 3.5 | 0.00 | 0.20 | 0.00 | 92 | 1011.1 |
| 20260506221434 | 46 | 70 | 0.9 | 1.7 | 0.00 | 0.20 | 0.00 | 92 | 1011.1 |
| 20260506220937 | 46 | 70 | 0.9 | 1.7 | 0.00 | 0.20 | 0.00 | 92 | 1011.2 |
| 20260506220434 | 46 | 70 | 0.9 | 2.6 | 0.00 | 0.20 | 0.00 | 92 | 1011.1 |
| 20260506215425 | 47 | 70 | 1.7 | 3.5 | 0.00 | 0.20 | 0.20 | 92 | 1011.0 |
| 20260506214925 | 47 | 73 | 1.7 | 3.5 | 0.00 | 0.20 | 0.20 | 92 | 1011.0 |
| 20260506214422 | 47 | 67 | 1.7 | 3.5 | 0.00 | 0.20 | 0.20 | 92 | 1011.0 |